Location: Amherst
(42.5000°N, 72.5000°W)
Time: 19:05:50
(UTC-04:00)

ISS - Pass Details

Date: 18 July 2018
Orbit: 402 x 408 km, 51.6° (Epoch: 18 July)

Event Time Altitude Azimuth Distance (km) Brightness Sun altitude
Rises 22:27:25 0° 229° (SW) 2,308 0.0 -17.9°
Reaches altitude 10° 22:29:29 10° 227° (SW) 1,453 -1.1 -18.2°
Enters shadow 22:30:45 21° 223° (SW) 953 -2.1 -18.3°
Exits shadow 22:35:07 17° 62° (ENE) 1,117 -1.7 -18.8°
Drops below altitude 10° 22:35:59 10° 60° (ENE) 1,464 -1.1 -18.8°
Sets 22:38:05 0° 58° (ENE) 2,328 0.0 -19.1°
